This is the latest recevied weather packets stored in our database for station/object OM6ABF-11. If no packets are shown the sender has not sent any weather packets the latest 10 day(s).
| Time | Temp. | Humidity | Pressure | Rain* | Wind** | Luminosity | Snow |
|---|---|---|---|---|---|---|---|
| 1777836698 | 10° C | 48% | 1020.3 hPa | - | - | - | - |
| 1777835800 | 11.11° C | 45% | 1020.1 hPa | - | - | - | - |
| 1777834901 | 12.22° C | 42% | 1020 hPa | - | - | - | - |
| 1777834001 | 12.22° C | 43% | 1019.8 hPa | - | - | - | - |
| 1777833103 | 13.33° C | 40% | 1019.6 hPa | - | - | - | - |
| 1777832203 | 13.89° C | 38% | 1019.5 hPa | - | - | - | - |
| 1777831304 | 15.56° C | 35% | 1019.3 hPa | - | - | - | - |
| 1777830404 | 16.11° C | 33% | 1019.1 hPa | - | - | - | - |
| 1777829505 | 16.67° C | 32% | 1019.1 hPa | - | - | - | - |
| 1777828607 | 18.33° C | 29% | 1018.9 hPa | - | - | - | - |
| 1777826810 | 20° C | 27% | 1018.7 hPa | - | - | - | - |
| 1777825912 | 21.11° C | 24% | 1018.8 hPa | - | - | - | - |
| 1777825013 | 21.11° C | 24% | 1018.9 hPa | - | - | - | - |
| 1777824114 | 21.11° C | 24% | 1018.8 hPa | - | - | - | - |
| 1777823214 | 21.11° C | 23% | 1018.9 hPa | - | - | - | - |
| 1777822315 | 21.67° C | 23% | 1018.9 hPa | - | - | - | - |
| 1777821417 | 22.22° C | 22% | 1019.1 hPa | - | - | - | - |
| 1777820518 | 21.67° C | 22% | 1019 hPa | - | - | - | - |
| 1777819620 | 22.22° C | 21% | 1019.2 hPa | - | - | - | - |
| 1777818721 | 23.89° C | 20% | 1019.4 hPa | - | - | - | - |
| 1777817821 | 23.89° C | 19% | 1019.5 hPa | - | - | - | - |
| 1777816922 | 22.78° C | 19% | 1019.6 hPa | - | - | - | - |
| 1777816022 | 22.78° C | 20% | 1019.7 hPa | - | - | - | - |
| 1777815122 | 22.78° C | 21% | 1020 hPa | - | - | - | - |
| 1777814223 | 22.78° C | 21% | 1020.1 hPa | - | - | - | - |
* Rain since midnight (hover to see other rain measurements)
** Current wind speed in m/s (hover to see current wind gust speed)